When you browse on this site, cookies collect data to enhance your experience and personalize the content and advertising you see.
Visit our Privacy Policy to learn more. By continuing to use the site, you agree to this use of cookies and data.
  • In Austria
  • List of Countries
  • For 7 days
  • Water Temperature
  • Weather Map
  • News
  • Weather Widgets
  • user-avatar
    Login

    Hourly Weather Oruro

    Today, 18 October, Friday

    Time Temperature Precipitation Wind Pressure Humidity
    00:00 +9°C° 0.1 mm 3 mps 477 mmHg 64%
    01:00 +9°C° 0.1 mm 3 mps 476 mmHg 67%
    02:00 +8°C° 0 mm 2 mps 476 mmHg 69%
    03:00 +8°C° 0 mm 2 mps 476 mmHg 70%
    04:00 +7°C° 0 mm 2 mps 476 mmHg 71%
    05:00 +7°C° 0 mm 2 mps 475 mmHg 72%
    06:00 +8°C° 0 mm 2 mps 476 mmHg 68%
    07:00 +8°C° 0 mm 2 mps 477 mmHg 65%
    08:00 +9°C° 0 mm 3 mps 477 mmHg 61%
    09:00 +10°C° 0.1 mm 3 mps 478 mmHg 54%
    10:00 +12°C° 0.1 mm 4 mps 479 mmHg 47%
    11:00 +13°C° 0.1 mm 5 mps 480 mmHg 40%
    12:00 +14°C° 0 mm 6 mps 480 mmHg 38%
    13:00 +15°C° 0 mm 7 mps 479 mmHg 37%
    14:00 +16°C° 0 mm 9 mps 479 mmHg 35%
    15:00 +15°C° 0 mm 9 mps 479 mmHg 37%
    16:00 +13°C° 0 mm 9 mps 478 mmHg 39%
    17:00 +13°C° 0 mm 9 mps 477 mmHg 40%
    18:00 +12°C° 0 mm 8 mps 477 mmHg 46%
    19:00 +10°C° 0 mm 7 mps 477 mmHg 51%
    20:00 +9°C° 0 mm 6 mps 477 mmHg 57%
    21:00 +9°C° 0.1 mm 5 mps 477 mmHg 59%
    22:00 +9°C° 0.1 mm 3 mps 478 mmHg 62%
    23:00 +9°C° 0.1 mm 2 mps 478 mmHg 65%

    Tomorrow, 19 October, Saturday

    Time Temperature Precipitation Wind Pressure Humidity
    00:00 +8°C° 0.1 mm 2 mps 477 mmHg 68%
    01:00 +7°C° 0.1 mm 2 mps 477 mmHg 72%
    02:00 +7°C° 0.1 mm 2 mps 476 mmHg 75%
    03:00 +7°C° 0.1 mm 2 mps 476 mmHg 75%
    04:00 +7°C° 0.1 mm 2 mps 476 mmHg 75%
    05:00 +5°C° 0.1 mm 3 mps 476 mmHg 75%
    06:00 +5°C° 0.1 mm 3 mps 476 mmHg 76%
    07:00 +5°C° 0.1 mm 3 mps 476 mmHg 77%
    08:00 +5°C° 0.1 mm 3 mps 476 mmHg 78%
    09:00 +7°C° 0.1 mm 2 mps 477 mmHg 72%
    10:00 +8°C° 0.1 mm 2 mps 478 mmHg 67%
    11:00 +9°C° 0.1 mm 2 mps 478 mmHg 61%
    12:00 +10°C° 0.2 mm 2 mps 478 mmHg 57%
    13:00 +12°C° 0.2 mm 2 mps 478 mmHg 53%
    14:00 +13°C° 0.2 mm 2 mps 479 mmHg 49%
    15:00 +9°C° 1.5 mm 5 mps 477 mmHg 60%
    16:00 +6°C° 1.5 mm 7 mps 475 mmHg 71%
    17:00 +3°C° 1.5 mm 10 mps 474 mmHg 82%
    18:00 +2°C° 3 mm 8 mps 474 mmHg 83%
    19:00 +3°C° 3 mm 6 mps 474 mmHg 85%
    20:00 +3°C° 3 mm 4 mps 474 mmHg 86%
    21:00 +3°C° 0.1 mm 4 mps 475 mmHg 82%
    22:00 +4°C° 0.1 mm 3 mps 475 mmHg 78%
    23:00 +4°C° 0.1 mm 3 mps 476 mmHg 74%

    Day after tomorrow, 20 October, Sunday

    Time Temperature Precipitation Wind Pressure Humidity
    00:00 +4°C° 0 mm 3 mps 476 mmHg 74%
    01:00 +5°C° 0 mm 2 mps 475 mmHg 74%
    02:00 +5°C° 0 mm 2 mps 475 mmHg 73%
    03:00 +5°C° 0 mm 2 mps 475 mmHg 75%
    04:00 +6°C° 0 mm 1 mps 474 mmHg 76%
    05:00 +5°C° 0 mm 1 mps 474 mmHg 77%
    06:00 +6°C° 0 mm 1 mps 475 mmHg 75%
    07:00 +6°C° 0 mm 1 mps 475 mmHg 72%
    08:00 +7°C° 0 mm 1 mps 475 mmHg 70%
    09:00 +8°C° 0 mm 1 mps 476 mmHg 61%
    10:00 +10°C° 0 mm 1 mps 477 mmHg 52%
    11:00 +10°C° 0 mm 2 mps 478 mmHg 42%
    12:00 +13°C° 0 mm 2 mps 478 mmHg 36%
    13:00 +14°C° 0 mm 2 mps 478 mmHg 29%
    14:00 +15°C° 0 mm 2 mps 478 mmHg 23%
    15:00 +16°C° 0 mm 3 mps 478 mmHg 21%
    16:00 +16°C° 0 mm 3 mps 478 mmHg 18%
    17:00 +17°C° 0 mm 3 mps 478 mmHg 16%
    18:00 +14°C° 0 mm 3 mps 478 mmHg 20%
    19:00 +13°C° 0 mm 3 mps 477 mmHg 23%
    20:00 +11°C° 0 mm 3 mps 477 mmHg 27%
    21:00 +11°C° 0 mm 3 mps 477 mmHg 30%
    22:00 +10°C° 0 mm 3 mps 477 mmHg 33%
    23:00 +9°C° 0 mm 3 mps 477 mmHg 36%

    21 October, Monday

    Time Temperature Precipitation Wind Pressure Humidity
    00:00 +9°C° 0 mm 2 mps 476 mmHg 36%
    01:00 +8°C° 0 mm 2 mps 476 mmHg 36%
    02:00 +7°C° 0 mm 2 mps 475 mmHg 37%
    03:00 +7°C° 0 mm 2 mps 475 mmHg 37%
    04:00 +6°C° 0 mm 2 mps 474 mmHg 37%
    05:00 +7°C° 0 mm 1 mps 474 mmHg 38%
    06:00 +8°C° 0 mm 1 mps 475 mmHg 33%
    07:00 +8°C° 0 mm 1 mps 476 mmHg 29%
    08:00 +9°C° 0 mm 1 mps 477 mmHg 24%
    09:00 +11°C° 0 mm 1 mps 477 mmHg 21%
    10:00 +12°C° 0 mm 1 mps 478 mmHg 18%
    11:00 +14°C° 0 mm 2 mps 479 mmHg 15%
    12:00 +15°C° 0 mm 2 mps 479 mmHg 15%
    13:00 +16°C° 0 mm 3 mps 479 mmHg 14%
    14:00 +17°C° 0 mm 3 mps 479 mmHg 14%
    15:00 +17°C° 0 mm 3 mps 479 mmHg 13%
    16:00 +17°C° 0 mm 3 mps 478 mmHg 13%
    17:00 +17°C° 0 mm 3 mps 478 mmHg 13%
    18:00 +16°C° 0 mm 3 mps 478 mmHg 16%
    19:00 +14°C° 0 mm 3 mps 478 mmHg 19%
    20:00 +13°C° 0 mm 3 mps 478 mmHg 22%
    21:00 +13°C° 0 mm 2 mps 477 mmHg 27%
    22:00 +12°C° 0 mm 2 mps 477 mmHg 31%
    23:00 +11°C° 0 mm 1 mps 477 mmHg 36%

    22 October, Tuesday

    Time Temperature Precipitation Wind Pressure Humidity
    00:00 +10°C° 0 mm 1 mps 476 mmHg 39%
    01:00 +9°C° 0 mm 1 mps 475 mmHg 41%
    02:00 +8°C° 0 mm 1 mps 475 mmHg 44%
    03:00 +8°C° 0 mm 1 mps 474 mmHg 46%
    04:00 +7°C° 0 mm 1 mps 474 mmHg 49%
    05:00 +7°C° 0 mm 1 mps 474 mmHg 52%
    06:00 +7°C° 0 mm 1 mps 475 mmHg 52%
    07:00 +7°C° 0 mm 2 mps 475 mmHg 52%
    08:00 +8°C° 0 mm 2 mps 476 mmHg 52%
    09:00 +10°C° 0 mm 2 mps 477 mmHg 42%
    10:00 +12°C° 0 mm 2 mps 478 mmHg 31%
    11:00 +14°C° 0 mm 2 mps 479 mmHg 21%
    12:00 +14°C° 0 mm 3 mps 479 mmHg 17%
    13:00 +16°C° 0 mm 3 mps 479 mmHg 13%
    14:00 +17°C° 0 mm 4 mps 479 mmHg 9%
    15:00 +17°C° 0 mm 4 mps 479 mmHg 8%
    16:00 +16°C° 0 mm 5 mps 478 mmHg 8%
    17:00 +16°C° 0 mm 5 mps 478 mmHg 8%
    18:00 +15°C° 0 mm 4 mps 478 mmHg 10%
    19:00 +14°C° 0 mm 3 mps 477 mmHg 13%
    20:00 +12°C° 0 mm 3 mps 477 mmHg 16%
    21:00 +11°C° 0 mm 3 mps 477 mmHg 20%
    22:00 +11°C° 0 mm 3 mps 476 mmHg 25%
    23:00 +10°C° 0 mm 2 mps 476 mmHg 29%

    23 October, Wednesday

    Time Temperature Precipitation Wind Pressure Humidity
    00:00 +9°C° 0 mm 2 mps 475 mmHg 29%
    01:00 +8°C° 0 mm 2 mps 475 mmHg 29%
    02:00 +7°C° 0 mm 2 mps 474 mmHg 28%
    03:00 +6°C° 0 mm 2 mps 474 mmHg 29%
    04:00 +6°C° 0 mm 2 mps 473 mmHg 30%
    05:00 +5°C° 0 mm 2 mps 473 mmHg 32%
    06:00 +6°C° 0 mm 2 mps 474 mmHg 28%
    07:00 +8°C° 0 mm 1 mps 475 mmHg 24%
    08:00 +9°C° 0 mm 1 mps 476 mmHg 20%
    09:00 +11°C° 0 mm 1 mps 477 mmHg 17%
    10:00 +12°C° 0 mm 1 mps 477 mmHg 13%
    11:00 +14°C° 0 mm 2 mps 478 mmHg 10%
    12:00 +15°C° 0 mm 2 mps 478 mmHg 9%
    13:00 +16°C° 0 mm 2 mps 478 mmHg 9%
    14:00 +17°C° 0 mm 2 mps 478 mmHg 8%
    15:00 +17°C° 0 mm 2 mps 478 mmHg 8%
    16:00 +17°C° 0 mm 2 mps 477 mmHg 8%
    17:00 +17°C° 0 mm 2 mps 477 mmHg 8%
    18:00 +16°C° 0 mm 2 mps 477 mmHg 13%
    19:00 +14°C° 0 mm 3 mps 477 mmHg 18%
    20:00 +13°C° 0 mm 3 mps 477 mmHg 23%
    21:00 +12°C° 0 mm 3 mps 477 mmHg 32%
    22:00 +11°C° 0 mm 3 mps 477 mmHg 41%
    23:00 +10°C° 0 mm 3 mps 476 mmHg 50%
    Show more